DW1684 Weather Reports


Display with metric or nautical units.
time (UTC)temp
F
wind
direction
speed
MPH
gust
MPH
rain 1hr
in
rain 24hr
in
rain mn
in
humidity
%
barometer
mb
20190716181321 83 204 5.0 10.0 0.01 0.04 0.04 69 1014.5
20190716180829 83 261 3.0 9.0 0.01 0.04 0.04 70 1014.5
20190716180318 83 234 4.0 9.0 0.01 0.04 0.04 72 1014.6
20190716175827 82 208 5.0 12.0 0.01 0.04 0.04 73 1014.6
20190716175333 82 261 7.0 11.0 0.00 0.03 0.03 71 1014.6
20190716174823 82 243 4.0 10.0 0.00 0.03 0.03 74 1014.7
20190716174313 82 188 4.0 8.0 0.00 0.03 0.03 73 1014.8
20190716173826 82 242 3.0 8.0 0.00 0.03 0.03 76 1014.8
20190716173316 82 262 4.0 12.0 0.00 0.03 0.03 75 1014.9
20190716172823 82 221 3.0 12.0 0.00 0.03 0.03 75 1014.9
20190716172332 82 203 4.0 10.0 0.00 0.03 0.03 73 1014.9
20190716171819 82 189 3.0 10.0 0.00 0.03 0.03 73 1015.1
20190716171325 82 214 4.0 12.0 0.00 0.03 0.03 73 1015.3
20190716170832 82 198 6.0 12.0 0.00 0.03 0.03 73 1015.3
20190716170326 82 220 5.0 11.0 0.00 0.03 0.03 75 1015.3
20190716165812 81 210 2.0 7.0 0.00 0.03 0.03 77 1015.5
20190716165323 81 233 3.0 10.0 0.00 0.03 0.03 76 1015.6
20190716164833 81 177 3.0 8.0 0.00 0.03 0.03 76 1015.6
20190716164322 81 201 4.0 14.0 0.00 0.03 0.03 76 1015.6
20190716163831 81 212 3.0 14.0 0.00 0.03 0.03 77 1015.7
20190716163317 81 210 4.0 13.0 0.00 0.03 0.03 77 1015.7
20190716162824 81 193 3.0 11.0 0.00 0.03 0.03 77 1015.6
20190716162333 80 185 5.0 11.0 0.00 0.03 0.03 77 1015.5
20190716161824 79 158 4.0 10.0 0.00 0.03 0.03 79 1015.6
20190716161334 79 197 5.0 10.0 0.00 0.03 0.03 79 1015.6
20190716160820 79 170 4.0 8.0 0.00 0.03 0.03 78 1015.6
20190716160330 79 212 3.0 8.0 0.00 0.03 0.03 78 1015.6
20190716155821 79 237 4.0 11.0 0.00 0.03 0.03 78 1015.6
20190716155330 79 193 4.0 11.0 0.00 0.03 0.03 78 1015.6
20190716154820 79 178 4.0 12.0 0.00 0.03 0.03 79 1015.6
20190716154333 79 264 7.0 12.0 0.00 0.03 0.03 78 1015.7
20190716153820 79 210 4.0 11.0 0.00 0.03 0.03 77 1015.7
20190716153331 79 184 4.0 11.0 0.00 0.03 0.03 77 1015.6
20190716152821 80 239 2.0 11.0 0.00 0.03 0.03 78 1015.6
20190716152329 80 207 4.0 11.0 0.00 0.03 0.03 77 1015.6
20190716151821 80 209 3.0 9.0 0.00 0.03 0.03 78 1015.6
20190716151311 79 178 5.0 8.0 0.00 0.03 0.03 79 1015.5
20190716150825 79 216 3.0 7.0 0.00 0.03 0.03 79 1015.5
20190716150334 79 216 3.0 13.0 0.00 0.03 0.03 80 1015.5
20190716145820 79 244 4.0 13.0 0.00 0.03 0.03 79 1015.6
20190716145327 79 226 4.0 10.0 0.00 0.03 0.03 80 1015.5
20190716144820 78 228 3.0 10.0 0.00 0.03 0.03 82 1015.5
20190716144330 78 214 4.0 7.0 0.00 0.03 0.03 82 1015.5
20190716143820 77 229 3.0 7.0 0.00 0.03 0.03 82 1015.6
20190716143333 77 183 3.0 8.0 0.00 0.03 0.03 83 1015.7
20190716142822 77 207 4.0 8.0 0.00 0.03 0.03 82 1015.8
20190716142328 77 220 3.0 8.0 0.00 0.03 0.03 83 1015.8
20190716141815 77 170 3.0 8.0 0.00 0.03 0.03 83 1015.7
20190716141324 76 154 3.0 7.0 0.00 0.03 0.03 84 1015.7
20190716140814 76 221 3.0 7.0 0.00 0.03 0.03 84 1015.7
20190716140324 76 142 2.0 7.0 0.00 0.03 0.03 84 1015.8
20190716135816 76 210 2.0 7.0 0.00 0.03 0.03 84 1015.8
20190716135323 76 210 2.0 6.0 0.00 0.03 0.03 85 1015.9
20190716134830 76 172 3.0 6.0 0.00 0.03 0.03 84 1015.9
20190716134320 75 178 2.0 11.0 0.00 0.03 0.03 85 1015.9
20190716133832 75 210 5.0 10.0 0.00 0.03 0.03 84 1016.0
20190716133319 75 182 2.0 6.0 0.00 0.03 0.03 85 1016.0
20190716132828 75 183 3.0 5.0 0.00 0.03 0.03 84 1016.0
20190716132318 75 182 2.0 7.0 0.00 0.03 0.03 85 1016.0
20190716131828 75 183 2.0 7.0 0.00 0.03 0.03 85 1016.0
20190716131318 75 209 2.0 7.0 0.00 0.03 0.03 85 1016.0
20190716130824 75 168 2.0 7.0 0.00 0.03 0.03 85 1015.9
20190716130330 75 218 2.0 6.0 0.00 0.03 0.03 85 1015.9
20190716125820 75 203 2.0 6.0 0.00 0.03 0.03 85 1015.9
20190716125329 74 172 2.0 7.0 0.00 0.03 0.03 85 1015.8
20190716124819 74 209 2.0 7.0 0.00 0.03 0.03 85 1015.7
20190716124329 74 121 2.0 8.0 0.00 0.03 0.03 85 1015.8
20190716123820 74 163 3.0 8.0 0.00 0.03 0.03 85 1015.7
20190716123309 74 170 4.0 8.0 0.00 0.03 0.03 85 1015.6
20190716122825 74 178 2.0 9.0 0.00 0.03 0.03 85 1015.5
20190716122330 74 157 5.0 9.0 0.00 0.03 0.03 85 1015.5
20190716121817 74 166 3.0 6.0 0.00 0.03 0.03 86 1015.4
20190716121324 74 174 3.0 9.0 0.00 0.03 0.03 86 1015.5
20190716120814 74 166 4.0 9.0 0.00 0.03 0.03 85 1015.5
20190716120326 74 216 4.0 7.0 0.00 0.03 0.03 86 1015.5
20190716115822 74 162 3.0 7.0 0.00 0.03 0.03 86 1015.5
20190716115332 74 145 4.0 8.0 0.00 0.03 0.03 86 1015.5
20190716114822 74 123 4.0 7.0 0.00 0.03 0.03 86 1015.5
20190716114311 74 160 4.0 7.0 0.00 0.03 0.03 87 1015.6
20190716113824 74 156 3.0 6.0 0.00 0.03 0.03 87 1015.7
20190716113316 74 208 2.0 6.0 0.00 0.03 0.03 87 1015.7
20190716112825 74 166 2.0 6.0 0.00 0.03 0.03 88 1015.7
20190716112314 74 201 2.0 7.0 0.00 0.03 0.03 88 1015.8
20190716111824 74 190 2.0 7.0 0.00 0.03 0.03 88 1015.8
20190716111315 74 166 2.0 5.0 0.00 0.03 0.03 88 1015.8
20190716110825 74 175 2.0 5.0 0.00 0.03 0.03 89 1015.8
20190716110332 74 189 3.0 8.0 0.00 0.03 0.03 89 1015.8
20190716105821 73 212 2.0 5.0 0.00 0.03 0.03 89 1015.8
20190716105310 73 211 1.0 6.0 0.00 0.03 0.03 89 1015.7
20190716104823 73 158 3.0 7.0 0.00 0.03 0.03 90 1015.7
20190716104333 73 166 3.0 7.0 0.00 0.03 0.03 90 1015.7
20190716103820 73 167 2.0 5.0 0.00 0.03 0.03 90 1015.7
20190716103327 73 167 3.0 5.0 0.00 0.03 0.03 90 1015.7
20190716102817 73 170 2.0 3.0 0.01 0.03 0.03 91 1015.8
20190716102327 73 156 1.0 3.0 0.01 0.03 0.03 91 1015.8
20190716101820 73 164 1.0 3.0 0.01 0.03 0.03 91 1015.8
20190716101309 73 198 1.0 6.0 0.01 0.03 0.03 91 1015.8
20190716100823 72 200 2.0 6.0 0.01 0.03 0.03 91 1015.8
20190716100315 72 169 1.0 6.0 0.01 0.03 0.03 92 1015.8
20190716095824 72 158 1.0 4.0 0.01 0.03 0.03 92 1015.8
20190716095333 72 158 1.0 4.0 0.01 0.03 0.03 92 1015.9
20190716094820 72 282 0.0 1.0 0.01 0.03 0.03 92 1015.9
20190716094310 72 282 0.0 1.0 0.01 0.03 0.03 92 1015.9
20190716093823 72 282 0.0 0.0 0.01 0.03 0.03 92 1016.0
20190716093313 72 282 0.0 0.0 0.01 0.03 0.03 92 1016.1
20190716092826 72 282 0.0 2.0 0.00 0.02 0.02 92 1016.1
20190716092314 72 282 0.0 2.0 0.00 0.02 0.02 91 1016.1
20190716091825 72 282 1.0 2.0 0.00 0.02 0.02 91 1016.0
20190716091317 72 282 0.0 1.0 0.00 0.02 0.02 91 1016.0
20190716090830 72 282 0.0 0.0 0.00 0.02 0.02 91 1016.1
20190716090319 72 282 0.0 0.0 0.01 0.02 0.02 90 1016.1
20190716085832 72 282 0.0 0.0 0.01 0.02 0.02 90 1016.1
20190716085320 72 282 0.0 2.0 0.01 0.02 0.02 89 1016.1
20190716084810 72 282 1.0 2.0 0.01 0.02 0.02 89 1016.1
20190716084323 72 282 1.0 1.0 0.01 0.02 0.02 89 1016.1
20190716083812 72 282 0.0 1.0 0.01 0.02 0.02 88 1016.1
20190716083326 72 282 0.0 2.0 0.01 0.02 0.02 88 1016.1
20190716082832 72 282 0.0 4.0 0.01 0.02 0.02 88 1016.1
20190716082321 72 282 1.0 5.0 0.02 0.02 0.02 88 1016.2
20190716081815 73 300 3.0 4.0 0.02 0.02 0.02 88 1016.2
20190716081324 73 146 0.0 1.0 0.02 0.02 0.02 87 1016.2
20190716080814 73 146 0.0 2.0 0.02 0.02 0.02 85 1016.2
20190716080324 73 146 0.0 3.0 0.01 0.01 0.01 85 1016.3
20190716075832 73 146 2.0 4.0 0.01 0.01 0.01 84 1016.2
20190716075318 73 143 2.0 4.0 0.01 0.01 0.01 84 1016.2
20190716074828 73 201 2.0 3.0 0.01 0.01 0.01 83 1016.3
20190716074320 74 201 1.0 3.0 0.01 0.01 0.01 83 1016.4
20190716073828 74 201 1.0 3.0 0.01 0.01 0.01 83 1016.4
20190716073320 74 201 0.0 1.0 0.01 0.01 0.01 82 1016.5
20190716072826 74 201 0.0 0.0 0.01 0.01 0.01 82 1016.7
20190716072316 75 201 0.0 1.0 0.00 0.00 0.00 80 1016.7
20190716071822 75 201 0.0 1.0 0.00 0.00 0.00 80 1016.7
20190716071329 75 201 0.0 1.0 0.00 0.00 0.00 79 1016.7
20190716070821 75 201 0.0 2.0 0.00 0.00 0.00 78 1016.7
20190716070334 76 201 1.0 3.0 0.00 0.00 0.00 77 1016.8
20190716065822 76 201 1.0 5.0 0.00 0.00 0.00 75 1016.8
20190716065329 77 201 2.0 7.0 0.00 0.00 0.00 74 1016.8
20190716064820 77 201 3.0 8.0 0.00 0.00 0.00 74 1017.0
20190716064330 77 187 2.0 5.0 0.00 0.00 0.00 73 1016.9
20190716063821 77 208 3.0 4.0 0.00 0.00 0.00 73 1016.9
20190716063326 77 205 2.0 3.0 0.00 0.00 0.00 73 1016.9
20190716062813 77 191 1.0 3.0 0.00 0.00 0.00 73 1016.9
20190716062323 77 175 1.0 3.0 0.00 0.00 0.00 73 1017.0
20190716061816 77 183 1.0 3.0 0.00 0.00 0.00 73 1017.1
20190716061323 77 260 1.0 2.0 0.00 0.00 0.00 73 1017.1
20190716060813 77 260 1.0 2.0 0.00 0.00 0.00 73 1017.2
20190716060323 77 260 0.0 1.0 0.00 0.00 0.00 73 1017.2
20190716055820 77 260 0.0 1.0 0.00 0.00 0.00 73 1017.2
20190716055325 77 260 0.0 2.0 0.00 0.00 0.00 73 1017.3
20190716054833 77 260 0.0 3.0 0.00 0.00 0.00 74 1017.4
20190716054322 77 260 1.0 3.0 0.00 0.00 0.00 73 1017.4
20190716053832 77 260 0.0 0.0 0.00 0.00 0.00 74 1017.5
20190716053317 77 260 0.0 0.0 0.00 0.00 0.00 75 1017.6
20190716052827 77 260 0.0 2.0 0.00 0.00 0.00 75 1017.6
20190716052318 77 260 1.0 2.0 0.00 0.00 0.00 75 1017.6
20190716051824 77 260 1.0 3.0 0.00 0.00 0.00 75 1017.5
20190716051331 77 260 1.0 3.0 0.00 0.00 0.00 75 1017.5
20190716050818 77 260 0.0 2.0 0.00 0.00 0.00 75 1017.6
20190716050331 77 260 0.0 1.0 0.00 0.00 0.00 75 1017.6
20190716045824 77 260 0.0 2.0 0.00 0.00 0.00 75 1017.7
20190716045329 77 260 0.0 2.0 0.00 0.00 0.00 75 1017.6
20190716044821 77 260 0.0 0.0 0.00 0.00 0.00 75 1017.6
20190716044331 77 260 0.0 1.0 0.00 0.00 0.00 75 1017.6
20190716043822 77 260 0.0 1.0 0.00 0.00 0.00 75 1017.5
20190716043333 77 260 0.0 1.0 0.00 0.00 0.00 75 1017.5
20190716042821 77 260 0.0 1.0 0.00 0.00 0.00 74 1017.6
20190716042328 77 260 0.0 1.0 0.00 0.00 0.00 74 1017.6
20190716041817 77 260 0.0 1.0 0.00 0.00 0.00 74 1017.6
20190716041327 77 260 0.0 1.0 0.00 0.00 0.00 74 1017.5
20190716040820 77 260 0.0 1.0 0.00 0.00 0.00 74 1017.4
20190716040333 77 260 0.0 2.0 0.00 0.00 0.00 74 1017.5
20190716035822 77 260 1.0 2.0 0.00 0.00 0.00 74 1017.5
20190716035333 78 260 1.0 2.0 0.00 0.00 0.00 73 1017.5
20190716034820 78 260 1.0 3.0 0.00 0.00 0.00 73 1017.6
20190716034327 78 260 2.0 3.0 0.00 0.00 0.00 73 1017.6
20190716033817 78 260 1.0 2.0 0.00 0.00 0.00 72 1017.6
20190716033329 78 260 1.0 2.0 0.00 0.00 0.00 72 1017.6
20190716032822 78 260 0.0 2.0 0.00 0.00 0.00 71 1017.5
20190716032332 78 260 1.0 2.0 0.00 0.00 0.00 71 1017.5
20190716031822 78 260 0.0 2.0 0.00 0.00 0.00 71 1017.4
20190716031329 79 260 0.0 2.0 0.00 0.00 0.00 71 1017.5
20190716030819 79 260 1.0 3.0 0.00 0.00 0.00 70 1017.5
20190716030325 79 260 0.0 3.0 0.00 0.00 0.00 70 1017.5
20190716025834 79 260 1.0 4.0 0.00 0.00 0.00 70 1017.5
20190716025320 79 261 2.0 4.0 0.00 0.00 0.00 70 1017.4
20190716024827 79 247 2.0 4.0 0.00 0.00 0.00 69 1017.4
20190716024316 79 237 2.0 4.0 0.00 0.00 0.00 69 1017.4
20190716023823 80 217 1.0 4.0 0.00 0.00 0.00 69 1017.4
20190716023330 80 262 2.0 4.0 0.00 0.00 0.00 69 1017.5
20190716022821 80 270 2.0 5.0 0.00 0.00 0.00 68 1017.6
20190716022311 80 258 1.0 5.0 0.00 0.00 0.00 68 1017.5
20190716021825 80 239 1.0 5.0 0.00 0.00 0.00 68 1017.4
20190716021334 80 241 2.0 5.0 0.00 0.00 0.00 67 1017.4
20190716020821 81 264 2.0 6.0 0.00 0.00 0.00 66 1017.3
20190716020327 81 247 2.0 7.0 0.00 0.00 0.00 66 1017.4
20190716015816 81 264 3.0 9.0 0.00 0.00 0.00 66 1017.4
20190716015323 81 264 3.0 9.0 0.00 0.00 0.00 66 1017.3
20190716014829 81 280 3.0 6.0 0.00 0.00 0.00 66 1017.3
20190716014318 82 272 2.0 5.0 0.00 0.00 0.00 66 1017.3
20190716013833 82 262 3.0 5.0 0.00 0.00 0.00 65 1017.2
20190716013319 82 255 3.0 7.0 0.00 0.00 0.00 65 1017.2
20190716012826 82 305 4.0 7.0 0.00 0.00 0.00 65 1017.2
20190716012332 83 268 3.0 7.0 0.00 0.00 0.00 64 1017.3
20190716011818 83 251 4.0 7.0 0.00 0.00 0.00 64 1017.3
20190716011325 83 255 4.0 8.0 0.00 0.00 0.00 63 1017.2
20190716010814 83 260 4.0 8.0 0.00 0.00 0.00 63 1017.2
20190716010327 84 273 3.0 8.0 0.00 0.00 0.00 63 1017.3
20190716005823 84 254 3.0 12.0 0.00 0.00 0.00 62 1017.3
20190716005315 84 224 5.0 12.0 0.00 0.00 0.00 62 1017.3
20190716004825 84 249 4.0 9.0 0.00 0.00 0.00 63 1017.2
20190716004332 84 255 5.0 9.0 0.00 0.00 0.00 63 1017.2
20190716003821 84 233 4.0 8.0 0.00 0.00 0.00 64 1017.3
20190716003327 84 230 3.0 6.0 0.00 0.00 0.00 65 1017.3
20190716002816 84 262 2.0 4.0 0.00 0.00 0.00 66 1017.1
20190716002326 84 203 2.0 4.0 0.00 0.00 0.00 65 1017.1
20190716001816 84 197 2.0 4.0 0.00 0.00 0.00 65 1017.1
20190716001322 84 227 2.0 3.0 0.00 0.00 0.00 64 1017.0
20190716000833 85 228 1.0 3.0 0.00 0.00 0.00 64 1016.8
20190716000325 85 228 1.0 4.0 0.00 0.00 0.00 63 1016.8
20190715235829 85 227 1.0 4.0 0.00 0.00 0.00 63 1016.8
20190715235317 85 247 2.0 4.0 0.00 0.00 0.00 62 1016.8
20190715234830 86 218 1.0 8.0 0.00 0.00 0.00 62 1016.8
20190715234320 86 254 2.0 8.0 0.00 0.00 0.00 61 1016.7
20190715233812 86 219 2.0 5.0 0.00 0.00 0.00 61 1016.6
20190715233322 86 240 2.0 5.0 0.00 0.00 0.00 61 1016.5
20190715232814 86 210 3.0 8.0 0.00 0.00 0.00 62 1016.6
20190715232323 85 274 2.0 8.0 0.00 0.00 0.00 62 1016.6
20190715231813 85 226 2.0 7.0 0.00 0.00 0.00 63 1016.7
20190715231326 85 225 3.0 7.0 0.00 0.00 0.00 62 1016.6
20190715230819 86 232 3.0 7.0 0.00 0.00 0.00 61 1016.5
20190715230328 86 247 3.0 7.0 0.00 0.00 0.00 61 1016.4
20190715225818 86 218 4.0 8.0 0.00 0.00 0.00 62 1016.5
20190715225324 86 223 4.0 8.0 0.00 0.00 0.00 61 1016.5
20190715224831 86 243 4.0 11.0 0.00 0.00 0.00 61 1016.4
20190715224322 87 234 6.0 11.0 0.00 0.00 0.00 59 1016.5
20190715223832 87 266 4.0 9.0 0.00 0.00 0.00 60 1016.4
20190715223319 88 206 5.0 9.0 0.00 0.00 0.00 59 1016.6
20190715222828 88 224 5.0 10.0 0.00 0.00 0.00 59 1016.5
20190715222312 88 230 5.0 10.0 0.00 0.00 0.00 59 1016.6
20190715221825 88 219 4.0 10.0 0.00 0.00 0.00 58 1016.6
20190715221318 88 235 4.0 10.0 0.00 0.00 0.00 58 1016.6
20190715220825 89 242 5.0 10.0 0.00 0.00 0.00 56 1016.7
20190715220332 89 220 3.0 8.0 0.00 0.00 0.00 57 1016.7
20190715215828 89 241 4.0 10.0 0.00 0.00 0.00 57 1016.7
20190715215334 88 225 4.0 13.0 0.00 0.00 0.00 57 1016.7
20190715214821 88 245 6.0 13.0 0.00 0.00 0.00 57 1016.9
20190715214327 88 237 6.0 14.0 0.00 0.00 0.00 57 1016.8
20190715213833 89 230 5.0 14.0 0.00 0.00 0.00 56 1016.8
20190715213322 89 245 4.0 11.0 0.00 0.00 0.00 58 1016.9
20190715212816 89 219 4.0 12.0 0.00 0.00 0.00 57 1016.9
20190715212325 89 209 6.0 12.0 0.00 0.00 0.00 55 1017.0
20190715211832 89 240 3.0 10.0 0.00 0.00 0.00 56 1017.1
20190715211325 89 268 5.0 12.0 0.00 0.00 0.00 54 1017.2
20190715210815 89 222 4.0 15.0 0.00 0.00 0.00 55 1017.2
20190715210328 89 245 5.0 15.0 0.00 0.00 0.00 55 1017.2
20190715205817 89 266 5.0 12.0 0.00 0.00 0.00 53 1017.3
20190715205322 89 260 8.0 12.0 0.00 0.00 0.00 52 1017.4
20190715204830 89 256 4.0 11.0 0.00 0.00 0.00 53 1017.4
20190715204322 89 245 4.0 11.0 0.00 0.00 0.00 53 1017.5
20190715203811 89 205 6.0 11.0 0.00 0.00 0.00 52 1017.5
20190715203324 89 247 6.0 11.0 0.00 0.00 0.00 52 1017.5
20190715202818 89 185 4.0 11.0 0.00 0.00 0.00 53 1017.5
20190715202327 89 241 5.0 12.0 0.00 0.00 0.00 52 1017.6
20190715201817 89 253 6.0 12.0 0.00 0.00 0.00 53 1017.6
20190715201330 89 262 6.0 14.0 0.00 0.00 0.00 54 1017.6
20190715200819 89 270 7.0 14.0 0.00 0.00 0.00 50 1017.6
20190715200326 90 267 6.0 14.0 0.00 0.00 0.00 49 1017.6
20190715195834 89 224 4.0 14.0 0.00 0.00 0.00 50 1017.7
20190715195320 90 198 5.0 11.0 0.00 0.00 0.00 51 1017.7
20190715194827 89 203 5.0 11.0 0.00 0.00 0.00 50 1017.7
20190715194321 89 247 6.0 10.0 0.00 0.00 0.00 50 1017.9
20190715193810 89 299 7.0 10.0 0.00 0.00 0.00 50 1017.9
20190715193324 89 241 5.0 11.0 0.00 0.00 0.00 50 1018.0
20190715192833 89 296 5.0 11.0 0.00 0.00 0.00 51 1018.1
20190715192321 90 284 7.0 9.0 0.00 0.00 0.00 53 1018.0
20190715191830 90 333 4.0 7.0 0.00 0.00 0.00 50 1018.0
20190715191322 89 220 2.0 9.0 0.00 0.00 0.00 54 1018.0
20190715190829 89 216 5.0 7.0 0.00 0.00 0.00 50 1018.1
20190715190320 89 245 4.0 12.0 0.00 0.00 0.00 52 1018.2
20190715185831 89 239 5.0 12.0 0.00 0.00 0.00 53 1018.2
20190715185317 89 237 3.0 8.0 0.00 0.00 0.00 53 1018.2
20190715184831 89 238 4.0 7.0 0.00 0.00 0.00 56 1018.3
20190715184320 89 249 4.0 7.0 0.00 0.00 0.00 54 1018.4
20190715183826 89 233 3.0 9.0 0.00 0.00 0.00 56 1018.5
20190715183315 88 249 4.0 10.0 0.00 0.00 0.00 57 1018.4
20190715182827 89 237 5.0 10.0 0.00 0.00 0.00 55 1018.5
20190715182316 88 244 4.0 9.0 0.00 0.00 0.00 54 1018.6
20190715181827 88 246 5.0 8.0 0.00 0.00 0.00 56 1018.6